Weather in Oktyabrskiy

Russia / Amur Oblast     53°00′47″N   128°38′56″E
temp.,
°C
wind,
m/s
gust,
m/s
humid.,
%
clouds,
%
prec.,
mm/h
press.,
hPa
HPBL,
m
21 january, thu
thu2100:00−26n2397100 0.3 1019138
03:00−28nnw2596100 0.3 1019208
06:00−29nw239798 0.0 1021105
09:00−32nw229897 0.1 102250
12:00−27nw248617 0.0 1023252
15:00−25nw25869 0.0 1023323
18:00−30nw11970 0.0 102519
21:00−31nw11940 0.0 102619
22 january, fri
fri2200:00−31n00930 0.0 102619
03:00−32ese11930 0.0 102719
06:00−33ese119519 0.0 102619
09:00−33ese019612 0.0 102819
12:00−27s00857 0.0 1028254
15:00−25sw118433 0.0 1027330
18:00−32sw119939 0.0 102919
21:00−32sw009819 0.0 103019
23 january, sat
sat2300:00−33se11960 0.0 103019
03:00−33se119724 0.0 103019
06:00−33ese229773 0.0 103030
09:00−31ese239586 0.0 1029141
12:00−29ese2493100 0.1 1028260
15:00−27e2593100 0.3 1025286
18:00−28ene2398100 0.2 1026139
21:00−27nne129799 0.5 102650
24 january, sun
sun2400:00−30n229623 0.0 102821
03:00−31n229612 0.0 103056
06:00−32n22939 0.0 103256
09:00−31n229225 0.0 103352
12:00−25nnw238348 0.0 1035219
15:00−24nnw138574 0.0 1034222
18:00−28n229185 0.0 103625
21:00−29n229163 0.0 103729
25 january, mon
mon2500:00−30n239050 0.0 103946
03:00−30n239262 0.0 103960
06:00−29nne248793 0.0 1039118
09:00−29nne368297 0.0 1040185
12:00−26nne2480100 0.0 1038198
15:00−24nne3583100 0.0 1034214
18:00−24ne3784100 0.0 1031211
21:00−22ne3883100 0.0 1026272